Content
SEND FEEDBACK

Daily
Averages
Monthly
Summary
United States of America

NORTH TONAWANDA, NEW YORK


Home > North America > United States > New York
Elevation: 600 feet     Latitude: 43 01N     Longitude: 078 51W

WEATHER
 
SELECT A DAY
Number of Records: 235,671;   Date Range: 1/1/95 - 7/26/14
 
SHARE

PRINT THIS DATA

[ ← Previous Day ]
WEATHER ALMANAC - FEBRUARY 16, 2014
[ Next Day → ]
[ °C ]   °F
Weather ElementAverageHighLow
Temperature13.6 °F18 °F (1:53 pm)8.1 °F (7:07 am)
Dewpoint6.9 °F12 °F (4:02 pm)-2 °F (11:53 pm)
Humidity75.1 %84 % (7:46 am)61 % (10:53 pm)
Barometer30.10 in30.37 in (11:53 pm)29.99 in (5:23 am)
Wind Speed9.1 mph13.8 mph (8:53 pm)
Weather ElementAverage
Visibility4.9 mi
Wind DirectionWNW (289 °)

Weather ElementTotal
Precipitation---
Heating Degree Days52 (Base 65)
Averaged from 41 records on February 16, 2014
WEATHER CONDITIONS BREAKOUT
WIND DIRECTION BREAKOUT
WEATHER BY HOUR - FEBRUARY 16, 2014
[ °C ]   °F
Local TimeTemperatureDewpointHumidityBarometerVisibilityWind DirectionWind SpeedGust SpeedPrecipitationEventsConditions
2:53 AM10.0 °F5.0 °F80 %30.06 in2.5 miWSW (240°)9.2 mph0.00 inSnowLight Snow
3:53 AM9.0 °F3.9 °F80 %30.06 in2.0 miWSW (240°)8.1 mph0.00 inSnowLight Snow
4:53 AM9.0 °F3.9 °F80 %30.06 in2.5 miSW (230°)8.1 mph0.00 inSnowLight Snow
5:23 AM9.0 °F3.9 °F80 %29.99 in3.0 miSW (230°)9.2 mph0.00 inSnowLight Snow
5:53 AM9.0 °F3.9 °F80 %30.06 in4.0 miWSW (240°)9.2 mph0.00 inSnowLight Snow
6:53 AM9.0 °F3.9 °F80 %30.07 in5.0 miSW (230°)6.9 mph0.00 inSnowLight Snow
7:07 AM8.1 °F3.9 °F83 %30.01 in5.0 miSW (230°)6.9 mph0.00 inOvercast
7:46 AM9.0 °F5.0 °F84 %30.02 in7.0 miSW (220°)10.4 mph0.00 inMostly Cloudy
7:53 AM9.0 °F5.0 °F84 %30.10 in5.0 miSW (230°)9.2 mph0.00 inMostly Cloudy
8:28 AM10.0 °F5.0 °F80 %30.03 in3.0 miSW (230°)10.4 mph0.00 inSnowLight Snow
9:07 AM10.9 °F6.1 °F81 %30.03 in1.0 miWSW (240°)8.1 mph0.00 inSnowLight Snow
9:53 AM10.9 °F7.0 °F84 %30.11 in1.0 miWSW (240°)8.1 mph0.00 inSnowLight Snow
10:10 AM12.0 °F8.1 °F84 %30.03 in3.0 miSW (230°)5.8 mph0.00 inSnowLight Snow
10:53 AM12.9 °F9.0 °F84 %30.11 in3.0 miWSW (240°)6.9 mph0.00 inSnowLight Snow
11:04 AM12.9 °F9.0 °F84 %30.03 in2.0 miSW (230°)6.9 mph0.00 inSnowLight Snow
11:53 AM15.1 °F9.0 °F77 %30.11 in2.0 miWest (260°)8.1 mph0.00 inSnowLight Snow
12:53 PM16.0 °F10.9 °F81 %30.09 in2.0 miWNW (300°)4.6 mph0.00 inSnowLight Snow
1:06 PM17.1 °F10.0 °F74 %30.02 in3.0 miNW (320°)8.1 mph0.00 inSnowLight Snow
1:53 PM18.0 °F10.9 °F74 %30.09 in3.0 miNW (320°)6.9 mph0.00 inSnowLight Snow
2:12 PM18.0 °F10.9 °F74 %30.01 in2.0 miNW (320°)6.9 mph0.00 inSnowLight Snow
2:53 PM17.1 °F10.0 °F74 %30.09 in2.0 miNNW (340°)9.2 mph0.00 inSnowLight Snow
3:32 PM17.1 °F10.9 °F77 %30.03 in2.5 miNW (320°)11.5 mph0.00 inSnowLight Snow
3:53 PM18.0 °F10.9 °F74 %30.11 in2.5 miNW (320°)9.2 mph0.00 inSnowLight Snow
3:55 PM18.0 °F10.9 °F74 %30.04 in1.0 miNW (320°)9.2 mph0.00 inSnowLight Snow
4:02 PM17.1 °F12.0 °F81 %30.05 in0.8 miNNW (340°)9.2 mph0.00 inSnowLight Snow
4:08 PM17.1 °F12.0 °F81 %30.05 in3.0 miNNW (340°)8.1 mph0.00 inSnowLight Snow
4:19 PM17.1 °F10.0 °F74 %30.05 in4.0 miNW (310°)12.7 mph0.00 inSnowLight Snow
4:42 PM17.1 °F8.1 °F68 %30.06 in7.0 miNNW (330°)11.5 mph0.00 inMostly Cloudy
4:53 PM16.0 °F8.1 °F71 %30.14 in7.0 miNW (320°)9.2 mph0.00 inMostly Cloudy
5:00 PM16.0 °F7.0 °F68 %30.08 in9.0 miNW (310°)11.5 mph0.00 inSnowLight Snow
5:15 PM16.0 °F7.0 °F68 %30.08 in10.0 miNW (310°)10.4 mph0.00 inMostly Cloudy
5:35 PM17.1 °F8.1 °F68 %30.10 in6.0 miNW (320°)11.5 mph0.00 inSnowLight Snow
5:53 PM16.0 °F8.1 °F71 %30.18 in7.0 miNW (320°)9.2 mph0.00 inSnowLight Snow
6:06 PM16.0 °F7.0 °F68 %30.11 in10.0 miNW (320°)10.4 mph0.00 inSnowLight Snow
6:33 PM15.1 °F7.0 °F70 %30.13 in10.0 miNNW (330°)9.2 mph0.00 inScattered Clouds
6:53 PM15.1 °F6.1 °F68 %30.22 in10.0 miNW (320°)9.2 mph0.00 inScattered Clouds
7:00 PM15.1 °F6.1 °F68 %30.15 in10.0 miNW (320°)10.4 mphScattered Clouds
8:53 PM12.9 °F1.9 °F62 %30.30 in10.0 miNNW (330°)13.8 mphScattered Clouds
9:53 PM10.0 °F0.0 °F64 %30.33 in10.0 miNNW (330°)8.1 mphPartly Cloudy
10:53 PM10.0 °F-0.9 °F61 %30.35 in10.0 miNNW (340°)10.4 mphPartly Cloudy
11:53 PM9.0 °F-2.0 °F61 %30.37 in10.0 miNNW (340°)10.4 mphClear
Hourly data recorded from KIAG, located miles away from North Tonawanda, New York







STORIES FROM OUR PARTNERS